Location: Emblem
(62.4273°N, 6.4710°E)
Time: 00:42:17
(UTC+02:00)

UWE-3 - Pass Details

Date: 25 March 2023
Orbit: 577 x 669 km, 97.7° (Epoch: 06 June)

Event Time Altitude Azimuth Distance (km) Brightness Sun altitude
Rises 03:28:18 0° 18° (NNE) 3,036 ? -18.5°
Reaches altitude 10° 03:30:37 10° 23° (NNE) 2,112 ? -18.4°
Maximum altitude 03:35:08 52° 100° (E) 833 ? -18.0°
Enters shadow 03:38:27 17° 172° (S) 1,642 ? -17.7°
